Location: St. Louis
(38.6270°N, 90.1994°W)
Time: 07:53:35
(UTC-06:00)

Transit 4A - Pass Details

Date: 02 December 2021
Orbit: 864 x 981 km, 66.8° (Epoch: 19 January)

Event Time Altitude Azimuth Distance (km) Brightness Sun altitude
Rises 18:53:47 0° 194° (SSW) 3,434 11.2 -25.6°
Reaches altitude 10° 18:56:15 10° 191° (S) 2,508 10.4 -26.1°
Enters shadow 19:00:46 49° 155° (SSE) 1,123 8.1 -27.0°
Maximum altitude 19:01:55 58° 113° (ESE) 1,026 - -27.2°
Drops below altitude 10° 19:07:45 10° 36° (NE) 2,583 - -28.3°
Sets 19:10:19 0° 33° (NNE) 3,546 - -28.8°
